Regional Weather Roundup
Issued by NWS

Home | Current Version | Previous Version | Graphics & Text | Print | Product List | Glossary On
Versions: 1 2 3 4 5 6 7 8 9 10 11 12 13 14 15 16 17 18 19 20 21 22 23 24 25 26 27 28 29 30 31 32 33 34 35 36 37 38 39 40 41 42 43 44 45 46 47 48 49 50
000
ASUS43 KOAX 250410
RWRNE

WEATHER ROUNDUP FOR NEBRASKA
NATIONAL WEATHER SERVICE OMAHA NE
1100 PM CDT WED AUG 24 2016

NOTES: SATELLITE DATA IS BEING USED TO AUGMENT CLOUD COVER ABOVE
       12000 FEET.
       "FAIR" INDICATES FEW OR NO CLOUDS BELOW 12,000 FEET WITH NO
       SIGNIFICANT WEATHER AND/OR OBSTRUCTIONS TO VISIBILITY.

  * THESE STATIONS DO NOT REPORT WEATHER SUCH AS RAIN...SNOW OR FOG.

NEZ001>004-019>022-054>056-250500-
NEBRASKA PANHANDLE

CITY           SKY/WX    TMP DP  RH WIND       PRES   REMARKS
SCOTTSBLUFF    CLOUDY    59  48  67 NE13      30.22S
ALLIANCE       CLOUDY    60  50  69 N13       30.24R
CHADRON        LGT RAIN  58  53  84 SE10      30.20F
KIMBALL        PTCLDY    55  47  75 SE5       30.25S
SIDNEY         PTCLDY    57  42  57 SE5       30.25R
$$

NEZ057>060-069>072-079>082-250500-
SOUTHWEST NEBRASKA

CITY           SKY/WX    TMP DP  RH WIND       PRES   REMARKS
NORTH PLATTE   PTCLDY    61  49  64 CALM      30.19R
IMPERIAL       CLOUDY    62  43  49 SW3       30.20R
LEXINGTON      CLOUDY    63  53  70 SE3       30.14S
MCCOOK         CLOUDY    65  50  58 CALM      30.15R
OGALLALA       CLOUDY    57  43  59 N3        30.21R
$$

NEZ005>010-023>029-035>040-094-250500-
NORTH CENTRAL NEBRASKA

CITY           SKY/WX    TMP DP  RH WIND       PRES   REMARKS
VALENTINE      CLOUDY    57  51  80 SW6       30.18R
AINSWORTH      CLOUDY    61  56  86 SW3       30.17S
BROKEN BOW     PTCLDY    57  54  89 N8        30.16R
O`NEILL        CLOUDY    63  55  75 NW3       30.14F
ORD            PTCLDY    62  57  83 NW6       30.14R
THEDFORD       CLOUDY    61  52  72 CALM      30.20R
$$

NEZ041-046>049-061>064-073>077-083>087-250500-
SOUTH CENTRAL NEBRASKA

CITY           SKY/WX    TMP DP  RH WIND       PRES   REMARKS
GRAND ISLAND   CLOUDY    61  56  83 N3        30.11S
AURORA         CLOUDY    58  57  96 NW5       30.11R
HASTINGS       CLOUDY    58  54  86 CALM      30.12F
HEBRON         PTCLDY    61  60  96 CALM      30.08S
HOLDREGE       CLOUDY    62  57  86 CALM      30.13S
KEARNEY *      MOCLDY    64  54  68 CALM      30.12S
YORK           CLEAR     59  57  94 N5        30.09F
$$

NEZ011>018-030>034-042>045-250500-
NORTHEAST NEBRASKA

CITY           SKY/WX    TMP DP  RH WIND       PRES   REMARKS
NORFOLK        PTCLDY    59  56  89 W3        30.11S
ALBION         CLOUDY    58  55  90 NW6       30.12S
BLAIR          CLOUDY    64  60  84 N6        30.06F
FREMONT        CLEAR     60  58  95 CALM      30.06F
TEKAMAH        CLEAR     60  57  89 CALM      30.06F
WAYNE          PTCLDY    58  57  97 NW5       30.10F
$$

NEZ050>053-065>068-078-088>093-250500-
SOUTHEAST NEBRASKA

CITY           SKY/WX    TMP DP  RH WIND       PRES   REMARKS
LINCOLN        CLEAR     62  60  93 CALM      30.07S
OMAHA EPPLEY   CLOUDY    66  61  84 N6        30.05F
BEATRICE       PTCLDY    64  62  91 CALM      30.06F
FALLS CITY     CLOUDY    69  69 100 CALM      30.03R
NEBRASKA CITY  PTCLDY    66  66 100 N3        30.04F
PLATTSMOUTH    CLOUDY    67  65  93 N5        30.05F
$$

NEZ044-045-051>053-067-250500-
OMAHA AREA

CITY           SKY/WX    TMP DP  RH WIND       PRES   REMARKS
OMAHA EPPLEY   CLOUDY    66  61  84 N6        30.05F
BLAIR          CLOUDY    64  60  84 N6        30.06F
FREMONT        CLEAR     60  58  95 CALM      30.06F
MILLARD        CLOUDY    68  60  74 CALM      30.06S
OFFUTT AFB     CLOUDY    68  63  85 N5        30.04F
PLATTSMOUTH    CLOUDY    67  65  93 N5        30.05F
WAHOO          FAIR      61  59  92 NW3       30.07S
$$




USA.gov is the U.S. government's official web portal to all federal, state and local government web resources and services.